Weather History for Two Harbors, MN

Change the Weather History Date:

Wednesday, May 8, 2013

  Actual Average Record
Temperature  
Mean Temperature 54 °F -  
Max Temperature 73 °F 54 °F 81 °F (1951)
Min Temperature 35 °F 38 °F 28 °F (1972)
Degree Days  
Heating Degree Days 11    
Growing Degree Days 4 (Base 50)    
Moisture  
Dew Point 42 °F    
Average Humidity 61    
Maximum Humidity 87    
Minimum Humidity 38    
Precipitation  
Precipitation 0.00 in - - ()
Sea Level Pressure  
Sea Level Pressure 29.99 in    
Wind  
Wind Speed 2 mph (South)    
Max Wind Speed 15 mph    
Max Gust Speed 16 mph    
Visibility 10 miles    
Events Rain    
Averages and records for this station are not official NWS values.
T = Trace of Precipitation, MM = Missing Value Source: NWS Daily Summary

Daily Weather History Graph

Daily Weather History Graph

Search for Another Location

Airport:

Trip Planner

Search our weather history database for the weather conditions in past years. The results will help you decide how hot, cold, wet, or windy it might be!

Date:

Astronomy

May. 08, 2013 Rise Set
Actual Time 5:40 AM CDT 8:27 PM CDT
Civil Twilight 5:05 AM CDT 9:02 PM CDT
Nautical Twilight 4:20 AM CDT 9:47 PM CDT
Astronomical Twilight 3:28 AM CDT 10:40 PM CDT
Moon 4:53 AM CDT (5/8) 7:22 PM CDT (5/8)
Length of Visible Light 15h 57m
Length of Day
14h 47m
Waning Crescent, 2% of the Moon is Illuminated
May 8
Waning Crescent
May 9
New
May 17
First Quarter
May 24
Full
May 31
Last Quarter

Hourly Weather History & Observations

Time (CDT) Temp. Dew Point Humidity Pressure Visibility Wind Dir Wind Speed Gust Speed Precip Events Conditions
12:11 AM 42.8 °F 35.6 °F 76% 29.98 in 10.0 mi Calm Calm - N/A   Clear
12:31 AM 44.6 °F 35.6 °F 71% 29.97 in 10.0 mi Calm Calm - N/A   Clear
12:51 AM 41.0 °F 35.6 °F 81% 29.97 in 10.0 mi Calm Calm - N/A   Clear
1:11 AM 39.2 °F 33.8 °F 81% 29.97 in 10.0 mi Calm Calm - N/A   Clear
1:31 AM 39.2 °F 33.8 °F 81% 29.97 in 10.0 mi Calm Calm - N/A   Clear
1:51 AM 39.2 °F 33.8 °F 81% 29.96 in 10.0 mi Calm Calm - N/A   Clear
2:11 AM 37.4 °F 32.0 °F 81% 29.96 in 10.0 mi Calm Calm - N/A   Clear
2:31 AM 37.4 °F 33.8 °F 87% 29.96 in 10.0 mi Calm Calm - N/A   Clear
2:51 AM 37.4 °F 32.0 °F 81% 29.96 in 10.0 mi Calm Calm - N/A   Clear
3:11 AM 37.4 °F 32.0 °F 81% 29.96 in 10.0 mi Calm Calm - N/A   Clear
3:31 AM 35.6 °F 30.2 °F 81% 29.96 in 10.0 mi Calm Calm - N/A   Clear
3:51 AM 35.6 °F 30.2 °F 81% 29.96 in 10.0 mi Calm Calm - N/A   Clear
4:11 AM 35.6 °F 30.2 °F 81% 29.96 in 10.0 mi Calm Calm - N/A   Clear
4:31 AM 35.6 °F 30.2 °F 81% 29.97 in 10.0 mi Calm Calm - N/A   Clear
4:51 AM 35.6 °F 30.2 °F 81% 29.97 in 10.0 mi Calm Calm - N/A   Clear
5:11 AM 35.6 °F 30.2 °F 81% 29.97 in 10.0 mi Calm Calm - N/A   Clear
5:51 AM 35.6 °F 30.2 °F 81% 29.97 in 10.0 mi Calm Calm - N/A   Clear
6:11 AM 35.6 °F 30.2 °F 81% 29.97 in 10.0 mi Calm Calm - N/A   Clear
6:31 AM 37.4 °F 33.8 °F 87% 29.98 in 10.0 mi Calm Calm - N/A   Clear
6:51 AM 41.0 °F 35.6 °F 81% 29.98 in 10.0 mi Calm Calm - N/A   Clear
7:11 AM 44.6 °F 39.2 °F 81% 29.98 in 10.0 mi Calm Calm - N/A   Clear
7:31 AM 48.2 °F 39.2 °F 71% 29.99 in 10.0 mi Calm Calm - N/A   Clear
7:52 AM 55.4 °F 42.8 °F 63% 29.99 in 10.0 mi Calm Calm - N/A   Clear
8:11 AM 57.2 °F 42.8 °F 59% 29.99 in 10.0 mi Calm Calm - N/A   Scattered Clouds
8:31 AM 60.8 °F 42.8 °F 52% 29.99 in 10.0 mi Calm Calm - N/A   Mostly Cloudy
8:52 AM 62.6 °F 44.6 °F 52% 29.99 in 10.0 mi Calm Calm - N/A   Mostly Cloudy
9:11 AM 62.6 °F 44.6 °F 52% 29.99 in 10.0 mi Calm Calm - N/A   Scattered Clouds
9:31 AM 66.2 °F 46.4 °F 49% 29.99 in 10.0 mi Calm Calm - N/A   Scattered Clouds
9:52 AM 68.0 °F 46.4 °F 46% 29.99 in 10.0 mi Calm Calm - N/A   Clear
10:11 AM 71.6 °F 48.2 °F 43% 29.98 in 10.0 mi Calm Calm - N/A   Clear
10:31 AM 71.6 °F 46.4 °F 41% 29.98 in 10.0 mi SE 3.5 mph - N/A   Clear
10:52 AM 73.4 °F 48.2 °F 41% 29.98 in 10.0 mi South 4.6 mph - N/A   Clear
11:11 AM 73.4 °F 48.2 °F 41% 29.98 in 10.0 mi South 6.9 mph - N/A   Clear
11:31 AM 71.6 °F 46.4 °F 41% 29.99 in 10.0 mi SSE 6.9 mph - N/A   Clear
11:52 AM 71.6 °F 46.4 °F 41% 29.99 in 10.0 mi South 9.2 mph - N/A   Clear
12:11 PM 69.8 °F 46.4 °F 43% 29.99 in 10.0 mi South 8.1 mph - N/A   Scattered Clouds
12:31 PM 71.6 °F 46.4 °F 41% 29.99 in 10.0 mi SSW 8.1 mph - N/A   Scattered Clouds
12:52 PM 71.6 °F 46.4 °F 41% 29.98 in 10.0 mi South 5.8 mph - N/A   Clear
1:11 PM 71.6 °F 46.4 °F 41% 29.98 in 10.0 mi SSW 4.6 mph - N/A   Scattered Clouds
1:31 PM 71.6 °F 46.4 °F 41% 29.97 in 10.0 mi SSW 8.1 mph - N/A   Scattered Clouds
1:52 PM 73.4 °F 46.4 °F 38% 29.97 in 10.0 mi SSW 6.9 mph - N/A   Scattered Clouds
2:11 PM 73.4 °F 46.4 °F 38% 29.97 in 10.0 mi South 5.8 mph 9.2 mph N/A   Scattered Clouds
2:31 PM 69.8 °F 46.4 °F 43% 29.98 in 10.0 mi SSW 10.4 mph - N/A   Scattered Clouds
2:52 PM 69.8 °F 48.2 °F 46% 29.98 in 10.0 mi SSW 8.1 mph - N/A   Clear
3:11 PM 69.8 °F 48.2 °F 46% 29.98 in 10.0 mi SSW 6.9 mph - N/A   Clear
3:31 PM 71.6 °F 46.4 °F 41% 29.98 in 10.0 mi SSW 11.5 mph - N/A   Scattered Clouds
3:52 PM 69.8 °F 46.4 °F 43% 29.98 in 10.0 mi SW 10.4 mph - N/A   Scattered Clouds
4:11 PM 69.8 °F 46.4 °F 43% 29.98 in 10.0 mi SSW 11.5 mph - N/A   Scattered Clouds
4:31 PM 69.8 °F 46.4 °F 43% 29.98 in 10.0 mi SSW 15.0 mph - N/A   Clear
4:51 PM 68.0 °F 46.4 °F 46% 29.98 in 10.0 mi SSW 8.1 mph - N/A   Mostly Cloudy
5:11 PM 66.2 °F 46.4 °F 49% 29.98 in 10.0 mi SSW 8.1 mph 16.1 mph N/A   Mostly Cloudy
5:31 PM 66.2 °F 46.4 °F 49% 29.98 in 10.0 mi SW 10.4 mph - N/A   Scattered Clouds
5:51 PM 66.2 °F 46.4 °F 49% 29.99 in 10.0 mi West 3.5 mph - N/A   Scattered Clouds
6:11 PM 66.2 °F 46.4 °F 49% 29.99 in 10.0 mi Calm Calm - N/A   Scattered Clouds
6:31 PM 66.2 °F 44.6 °F 46% 29.99 in 10.0 mi Calm Calm - N/A   Mostly Cloudy
6:51 PM 66.2 °F 46.4 °F 49% 30.00 in 10.0 mi Calm Calm - N/A   Scattered Clouds
7:11 PM 64.4 °F 46.4 °F 52% 30.00 in 10.0 mi Calm Calm - N/A   Scattered Clouds
7:31 PM 64.4 °F 46.4 °F 52% 30.00 in 10.0 mi Calm Calm - N/A Rain Light Rain
7:51 PM 62.6 °F 48.2 °F 59% 30.00 in 10.0 mi North 3.5 mph - N/A   Mostly Cloudy
8:11 PM 62.6 °F 48.2 °F 59% 30.01 in 10.0 mi North 3.5 mph - N/A   Mostly Cloudy
8:31 PM 60.8 °F 48.2 °F 63% 30.00 in 10.0 mi North 3.5 mph - N/A   Scattered Clouds
8:51 PM 60.8 °F 46.4 °F 59% 30.01 in 10.0 mi North 3.5 mph - N/A   Mostly Cloudy
9:11 PM 60.8 °F 46.4 °F 59% 30.02 in 10.0 mi NNE 4.6 mph - N/A   Mostly Cloudy
9:31 PM 59.0 °F 48.2 °F 67% 30.02 in 10.0 mi NE 4.6 mph - N/A   Overcast
9:51 PM 51.8 °F 42.8 °F 71% 30.02 in 10.0 mi ENE 3.5 mph - N/A   Overcast
10:11 PM 51.8 °F 42.8 °F 71% 30.03 in 10.0 mi NNE 4.6 mph - N/A   Overcast
10:32 PM 51.8 °F 42.8 °F 71% 30.03 in 10.0 mi NNE 4.6 mph - N/A   Overcast
10:51 PM 51.8 °F 42.8 °F 71% 30.03 in 10.0 mi Calm Calm - N/A   Overcast
11:11 PM 51.8 °F 44.6 °F 76% 30.03 in 10.0 mi NE 4.6 mph - N/A   Overcast
11:32 PM 51.8 °F 44.6 °F 76% 30.03 in 10.0 mi NNE 6.9 mph - N/A   Light Drizzle
11:51 PM 51.8 °F 44.6 °F 76% 30.03 in 10.0 mi NE 8.1 mph - N/A   Light Drizzle